TimeEST,TemperatureF,Dew PointF,Humidity,Sea Level PressureIn,VisibilityMPH,Wind Direction,Wind SpeedMPH,Gust SpeedMPH,PrecipitationIn,Events,Conditions,WindDirDegrees,DateUTC
12:56 AM,44.1,28.0,53,29.93,10.0,West,5.8,-,N/A,,Overcast,270,2013-03-02 05:56:00
1:56 AM,42.1,28.9,60,29.91,10.0,WSW,3.5,-,N/A,,Overcast,240,2013-03-02 06:56:00
2:56 AM,39.0,28.0,65,29.90,10.0,SW,3.5,-,N/A,,Scattered Clouds,230,2013-03-02 07:56:00
3:56 AM,37.0,28.0,70,29.89,10.0,SSW,3.5,-,N/A,,Scattered Clouds,210,2013-03-02 08:56:00
4:56 AM,35.1,28.0,76,29.88,10.0,Calm,Calm,-,N/A,,Clear,0,2013-03-02 09:56:00
5:56 AM,34.0,27.0,75,29.88,10.0,Calm,Calm,-,N/A,,Clear,0,2013-03-02 10:56:00
6:56 AM,32.0,27.0,82,29.88,9.0,Calm,Calm,-,N/A,,Clear,0,2013-03-02 11:56:00
7:56 AM,34.0,28.0,79,29.89,8.0,Calm,Calm,-,N/A,,Mostly Cloudy,0,2013-03-02 12:56:00
8:56 AM,37.0,28.9,73,29.89,9.0,SW,3.5,-,N/A,,Overcast,220,2013-03-02 13:56:00
9:56 AM,39.9,30.9,70,29.88,10.0,Calm,Calm,-,N/A,,Mostly Cloudy,0,2013-03-02 14:56:00
10:56 AM,44.1,30.9,60,29.89,9.0,West,3.5,-,N/A,,Mostly Cloudy,280,2013-03-02 15:56:00
11:33 AM,44.6,30.2,57,29.89,9.0,North,5.8,-,N/A,,Mostly Cloudy,10,2013-03-02 16:33:00
11:56 AM,46.0,30.9,56,29.88,10.0,NW,3.5,-,N/A,,Overcast,310,2013-03-02 16:56:00
12:56 PM,46.9,30.0,52,29.87,10.0,West,8.1,-,N/A,,Overcast,280,2013-03-02 17:56:00
1:56 PM,46.9,33.1,59,29.86,10.0,West,12.7,-,N/A,,Overcast,280,2013-03-02 18:56:00
2:56 PM,46.0,32.0,58,29.87,10.0,WNW,8.1,-,N/A,,Overcast,300,2013-03-02 19:56:00
3:56 PM,48.0,30.9,52,29.86,10.0,NW,5.8,-,N/A,,Mostly Cloudy,310,2013-03-02 20:56:00
4:56 PM,48.9,30.0,48,29.87,10.0,WNW,5.8,-,N/A,,Mostly Cloudy,290,2013-03-02 21:56:00
5:56 PM,46.9,30.9,54,29.88,10.0,WNW,6.9,-,N/A,,Mostly Cloudy,300,2013-03-02 22:56:00
6:56 PM,46.0,30.0,54,29.90,10.0,WNW,10.4,-,N/A,,Overcast,300,2013-03-02 23:56:00
7:56 PM,43.0,32.0,65,29.91,10.0,West,4.6,-,N/A,,Overcast,260,2013-03-03 00:56:00
8:56 PM,43.0,33.1,68,29.92,10.0,WSW,3.5,-,N/A,,Overcast,250,2013-03-03 01:56:00
9:56 PM,42.1,33.1,70,29.93,10.0,West,4.6,-,N/A,,Overcast,270,2013-03-03 02:56:00
10:56 PM,41.0,33.1,73,29.93,10.0,WNW,5.8,-,N/A,,Mostly Cloudy,300,2013-03-03 03:56:00
11:29 PM,42.8,33.8,70,29.93,10.0,NW,3.5,-,N/A,,Overcast,320,2013-03-03 04:29:00
11:56 PM,42.1,34.0,73,29.93,10.0,NNW,4.6,-,N/A,,Overcast,330,2013-03-03 04:56:00